Rogers, AR

12:28 AM CST on January 17, 2017 (GMT -0600)
Rogers Municipal-Carter

Weather History for KROG - November, 2011

Change the Weather History Date:

Wednesday, November 23, 2011

  Actual Average Record
Temperature  
Mean Temperature 52 °F -  
Max Temperature 61 °F 53 °F 71 °F (2005)
Min Temperature 42 °F 36 °F 17 °F (2007)
Degree Days  
Heating Degree Days 14    
Growing Degree Days 2 (Base 50)    
Moisture  
Dew Point 42 °F    
Average Humidity 81    
Maximum Humidity 97    
Minimum Humidity 54    
Precipitation  
Precipitation 0.00 in - - ()
Sea Level Pressure  
Sea Level Pressure 30.26 in    
Wind  
Wind Speed 4 mph (SSW)    
Max Wind Speed 7 mph    
Max Gust Speed -    
Visibility 7 miles    
Events      
Averages and records for this station are not official NWS values.
T = Trace of Precipitation, MM = Missing Value Source: NWS Daily Summary

Daily Weather History Graph

Daily Weather History Graph

Search for Another Location

Airport or City:

Trip Planner

Search our weather history database for the weather conditions in past years. The results will help you decide how hot, cold, wet, or windy it might be!

Date:

Astronomy

Nov. 23, 2011 Rise Set
Actual Time 7:01 AM CST 5:03 PM CST
Civil Twilight 6:33 AM CST 5:31 PM CST
Nautical Twilight 6:02 AM CST 6:03 PM CST
Astronomical Twilight 5:31 AM CST 6:33 PM CST
Moon 5:08 AM CST (11/23) 3:45 PM CST (11/23)
Length of Visible Light 10h 58m
Length of Day
10h 02m
Waning Crescent, 3% of the Moon is Illuminated
Nov 23
Waning Crescent
Nov 25
New
Dec 2
First Quarter
Dec 10
Full
Dec 17
Last Quarter

Hourly Weather History & Observations

Time (CST) Temp. Windchill Dew Point Humidity Pressure Visibility Wind Dir Wind Speed Gust Speed Precip Events Conditions
12:57 AM 43.0 °F 38.8 °F 42.1 °F 97% 30.22 in 4.0 mi West 6.9 mph - N/A   Overcast
1:57 AM 43.0 °F 40.3 °F 42.1 °F 97% 30.22 in 4.0 mi WNW 4.6 mph - N/A   Overcast
2:57 AM 43.0 °F - 41.0 °F 93% 30.22 in 5.0 mi Calm Calm - N/A   Overcast
3:49 AM 42.8 °F - 41.0 °F 93% 30.21 in 5.0 mi Calm Calm - N/A   Overcast
3:57 AM 43.0 °F 41.3 °F 41.0 °F 93% 30.23 in 6.0 mi NW 3.5 mph - N/A   Overcast
4:57 AM 43.0 °F - 41.0 °F 93% 30.25 in 5.0 mi Calm Calm - N/A   Overcast
6:57 AM 43.0 °F 40.3 °F 39.9 °F 89% 30.27 in 5.0 mi NNE 4.6 mph - N/A   Overcast
7:57 AM 43.0 °F 39.5 °F 39.9 °F 89% 30.30 in 5.0 mi NE 5.8 mph - N/A   Overcast
8:57 AM 44.1 °F 42.5 °F 39.9 °F 85% 30.31 in 5.0 mi South 3.5 mph - N/A   Overcast
9:49 AM 46.4 °F 45.2 °F 41.0 °F 81% 30.30 in 6.0 mi Variable 3.5 mph - N/A   Haze
9:57 AM 46.9 °F - 41.0 °F 80% 30.31 in 7.0 mi Calm Calm - N/A   Partly Cloudy
10:57 AM 51.1 °F - 42.1 °F 71% 30.30 in 9.0 mi Calm Calm - N/A   Clear
11:57 AM 53.1 °F - 43.0 °F 69% 30.28 in 10.0 mi Calm Calm - N/A   Clear
12:57 PM 55.9 °F - 43.0 °F 62% 30.26 in 10.0 mi NNE 3.5 mph - N/A   Clear
1:57 PM 60.1 °F - 44.1 °F 55% 30.24 in 10.0 mi South 4.6 mph - N/A   Clear
2:57 PM 61.0 °F - 44.1 °F 54% 30.23 in 10.0 mi SSW 5.8 mph - N/A   Clear
3:57 PM 59.0 °F - 44.1 °F 58% 30.24 in 10.0 mi SW 4.6 mph - N/A   Clear
4:57 PM 57.0 °F - 42.1 °F 57% 30.24 in 10.0 mi SW 3.5 mph - N/A   Clear
7:57 PM 46.9 °F - 43.0 °F 86% 30.27 in 9.0 mi ESE 4.6 mph - N/A   Clear
8:57 PM 46.0 °F 42.5 °F 42.1 °F 86% 30.28 in 10.0 mi South 6.9 mph - N/A   Clear
9:57 PM 46.0 °F 42.5 °F 42.1 °F 86% 30.29 in 8.0 mi South 6.9 mph - N/A   Clear
10:57 PM 44.1 °F 42.5 °F 41.0 °F 89% 30.28 in 7.0 mi SSE 3.5 mph - N/A   Clear
11:57 PM 44.1 °F 42.5 °F 41.0 °F 89% 30.28 in 5.0 mi SE 3.5 mph - N/A   Clear